Skip Page Navigation
NASA JPL Caltech
NASA Logo - Jet Propulsion Laboratory + View the NASA Portal
+ Near-Earth Object (NEO) Program
Search JPL
JPL Home Earth Solar System Stars & Galaxies Technology
JPL Solar System Dynamics
BODIES ORBITS EPHEMERIDES TOOLS PHYSICAL DATA DISCOVERY FAQ SITE MAP
JPL Small-Body Database Browser
Search: [ help ]  
38071 (1999 GU3)
Classification: Amor [NEO, PHA]          SPK-ID: 2038071
Ephemeris | Orbit Diagram | Orbital Elements | Physical Parameters | Discovery Circumstances | Close-Approach Data ]

[ hide orbit diagram ]
Orbit Diagram
Note: Make sure you have Java enabled on your browser to see the applet. This applet is provided as a 3D orbit visualization tool. The applet was implemented using 2-body methods, and hence should not be used for determining accurate long-term trajectories (over several years or decades) or planetary encounter circumstances. For accurate long-term ephemerides, please instead use our Horizons system.
Orbit Viewer

Additional Notes: the orbits shown in the applet are color coded. The planets are white lines, and the asteroid/comet is a blue line. The bright white line indicates the portion of the orbit that is above the ecliptic plane, and the darker portion is below the ecliptic plane. Likewise for the asteroid/comet orbit, the light blue indicates the portion above the ecliptic plane, and the dark blue the portion below the ecliptic plane.

Orbit Viewer applet originally written and kindly provided by Osamu Ajiki (AstroArts), and further modified by Ron Baalke (JPL).


Orbital Elements at Epoch 2456400.5 (2013-Apr-18.0) TDB
Reference: JPL 43 (heliocentric ecliptic J2000)
 Element Value Uncertainty (1-sigma)   Units 
e .506884864984874 6.3317e-09  
a 2.089725862738093 1.1218e-09 AU
q 1.030475450948696 1.3371e-08 AU
i 12.73272779357518 1.6787e-06 deg
node 195.5829059496045 2.194e-06 deg
peri 8.775493441887766 1.6776e-05 deg
M 231.9907231383515 4.0566e-06 deg
tp 2456792.847912947401
(2014-May-15.34791295)
1.2702e-05 JED
period 1103.398535824253
3.02
8.8846e-07
2.432e-09
d
yr
n .3262647070045959 2.6271e-10 deg/d
Q 3.148976274527491 1.6904e-09 AU
  Orbit Determination Parameters
   # obs. used (total)      451  
   # delay obs. used      6  
   # Doppler obs. used      5  
   data-arc span      3359 days (9.20 yr)  
   first obs. used      1999-04-10  
   last obs. used      2008-06-20  
   planetary ephem.      DE405  
   SB-pert. ephem.      SB405-CPV-2  
   condition code      0  
   fit RMS      .58332  
   data source      ORB  
   producer      Otto Matic  
   solution date      2013-Apr-29 15:38:08  

Additional Information
 Earth MOID = .032698 AU 
 T_jup = 3.556 
[ show covariance matrix ]

Ephemeris | Orbit Diagram | Orbital Elements | Physical Parameters | Discovery Circumstances | Close-Approach Data ]

Physical Parameter Table
Parameter Symbol Value Units Sigma Reference Notes
absolute magnitude H 19.6 mag n/a PDS3 (MPO 26382)  
rotation period rot_per 216. h n/a Asteroid Lightcurve DataBase (Rev. 2013-May-01) Published Reference List:
[Pravec, P.; Sarounova, L.; Benner, L.A.M.; Ostro, S.J.; et al. (2000) Icarus 148, 589-593.]
[Pravec, P.; Wolf, M.; Sarounova, L. (2002) http://www.asu.cas.cz/~ppravec/neo.htm]

38071 (1999 GU3)          Discovered 1999-Apr-10 by LINEAR at Socorro (704)
Reference: 20020328/Numbers.arcLast Updated: 2004-04-19

[ show close-approach data ]
Ephemeris | Orbit Diagram | Orbital Elements | Physical Parameters | Discovery Circumstances | Close-Approach Data ]
ABOUT SSD CREDITS/AWARDS PRIVACY/COPYRIGHT GLOSSARY LINKS
FirstGov 2013-May-22 13:43 UT
(server date/time)  
NASA Home Page
Site Manager:   Donald K. Yeomans
Webmaster  Alan B. Chamberlin